#timestamp,LO_Frequency,Hit,StdDev 
1627549215.8,286047000.6,N
1627549235.6,286046998.1,N
1627549255.5,286046999.3,N
1627549275.3,286046999.3,N
1627549295.1,286046998.9,N
1627549315.9,286047001.2,N
1627549335.7,286046998.5,N
1627549355.5,286047000.8,N
1627549375.4,286047000.8,N
1627549395.2,286046998.5,N
1627549415.1,286046999.8,N
1627549416.0,286046999.8,N
1627549435.8,286047000.4,N
1627549455.6,286047000.7,N
1627549475.5,286047001.1,N
1627549495.3,286046999.7,N
1627549515.1,286047000.1,N
1627549535.9,286047003.9,Y
1627549555.7,286047004.2,P
1627549575.6,286047006.0,N
1627549595.4,286047005.2,N
1627549615.2,286047004.8,N
1627549635.1,286047006.0,N
1627549636.0,286047006.0,N
1627549655.8,286047005.2,N
1627549675.7,286047004.7,N
1627549695.5,286047004.8,N
1627549715.3,286047007.2,Y
1627549735.2,286047000.2,P
1627549755.0,286047000.7,N
1627549755.9,286047000.7,N
1627549775.8,286046998.3,N
1627549795.6,286047000.7,N
1627549815.4,286046998.5,N
1627549835.3,286046998.8,N
1627549855.1,286046998.8,N
1627549875.8,286046998.3,N
1627549895.7,286046999.1,N
1627549915.5,286046998.9,N
1627549935.3,286046999.2,N
1627549955.2,286046999.6,N
1627549975.0,286046999.3,N
1627549975.9,286046999.3,N
1627549995.8,286046996.5,N
1627550015.6,286046999.3,N
1627550035.4,286046999.3,N
1627550055.3,286046998.3,N
1627550075.1,286046997.2,N
1627550095.9,286046996.8,N
1627550115.7,286046996.9,N
1627550135.5,286046995.7,N
1627550155.4,286046997.8,N
1627550175.2,286046997.4,N
1627550195.0,286046995.2,N
1627550195.9,286046995.2,N
1627550215.8,286046993.3,Y
1627550235.6,286046995.9,P
1627550255.5,286046996.2,N
1627550275.3,286046993.7,P
1627550295.1,286046993.6,Y
1627550315.9,286046999.4,P
1627550335.7,286046999.0,N
1627550355.6,286046999.3,N
1627550375.4,286046996.9,N
1627550395.2,286046997.2,N
1627550415.1,286046997.4,N
1627550416.0,286046997.4,N
1627550435.8,286046997.6,N
1627550455.6,286046995.5,Y
1627550475.5,286046996.9,P
1627550495.3,286046999.5,N
1627550515.2,286046997.1,N
1627550535.9,286046996.6,Y
1627550555.7,286047000.7,P
1627550575.6,286046998.7,N
1627550595.4,286047000.7,N
1627550615.2,286047001.1,N
1627550635.1,286047001.0,N
1627550636.0,286047001.0,N
1627550655.8,286047001.2,N
1627550675.7,286046998.2,N
1627550695.5,286046998.5,N
1627550715.3,286046998.1,N
1627550735.2,286047000.8,N
1627550755.0,286047002.4,N
1627550755.9,286047002.4,N
1627550775.7,286047000.4,N
1627550795.6,286047000.8,N
1627550815.4,286047002.4,N
1627550835.3,286047000.2,N
1627550855.1,286047000.9,N
1627550875.9,286047000.1,N
1627550895.7,286047000.7,N
1627550915.5,286047000.5,N
1627550935.4,286046999.7,N
1627550955.2,286047002.1,N
1627550975.0,286047002.6,N
1627550975.9,286047002.6,N
1627550995.8,286047002.5,N
1627551015.6,286047002.0,N
1627551035.5,286047000.3,N
1627551055.3,286047000.2,N
1627551075.1,286047002.4,N
1627551095.9,286046999.7,N
1627551115.7,286047000.4,N
1627551135.5,286047001.1,N
1627551155.4,286047001.1,N
1627551175.2,286047000.6,N
1627551195.1,286046999.7,N
1627551196.0,286046999.7,N
1627551215.8,286047002.3,N
1627551235.6,286047001.8,N
1627551255.5,286047001.4,N
1627551275.3,286047002.6,N
1627551295.1,286047001.5,N
1627551315.9,286047002.8,N
1627551335.7,286047011.9,Y
1627551355.6,286046999.8,P
1627551375.4,286047000.0,N
1627551395.2,286047000.4,N
1627551415.1,286047002.8,Y
1627551416.0,286047002.8,P
1627551435.8,286047000.9,N
1627551455.7,286047000.6,N
1627551475.5,286047000.7,N
1627551495.3,286047000.0,N
1627551515.2,286047000.9,N
1627551535.9,286047000.0,N
1627551555.7,286047000.5,N
1627551575.6,286046999.9,N
1627551595.4,286047002.7,Y
1627551615.3,286046999.7,P
1627551635.1,286046999.8,N
1627551636.0,286046999.8,N
1627551655.8,286047002.4,Y
1627551675.7,286047000.2,P
1627551695.5,286047002.7,P
1627551715.3,286047000.1,N
1627551735.2,286047002.8,N
1627551755.0,286047002.8,N
1627551755.9,286047002.8,N
1627551775.8,286047000.7,N
1627551795.6,286047000.3,N
1627551815.4,286047000.0,N
1627551835.3,286047001.1,N
1627551855.1,286047000.4,N
1627551875.8,286047000.2,N
1627551895.7,286047000.6,N
1627551915.5,286047001.9,N
1627551935.4,286047002.1,N
1627551955.2,286046999.8,N
1627551975.0,286047000.2,N
1627551975.9,286047000.2,N
1627551995.8,286047002.0,N
1627552015.6,286047002.1,N
1627552035.4,286047002.3,N
1627552055.3,286046999.7,N
1627552075.1,286046999.7,N
1627552095.9,286047002.5,N
1627552115.7,286047001.9,N
1627552135.5,286047002.5,N
1627552155.4,286047002.5,N
1627552175.2,286047002.3,N
1627552195.0,286047002.6,N
1627552196.0,286047002.6,N
1627552215.8,286047002.7,N
1627552235.6,286047002.8,N
1627552255.5,286046999.7,N
1627552275.3,286047000.6,N
1627552295.1,286047000.1,N
1627552315.9,286047000.4,N
1627552335.7,286047000.3,N
1627552355.6,286047000.5,N
1627552375.4,286047002.8,N
1627552395.2,286046999.9,N
1627552415.1,286047002.8,N
1627552416.0,286047002.8,N
1627552435.8,286047002.6,N
1627552455.6,286047001.8,N
1627552475.5,286047002.6,N
1627552495.3,286047002.1,N
1627552515.2,286047001.8,N
1627552535.9,286047001.9,N
1627552555.7,286047002.3,N
1627552575.6,286047002.1,N
1627552625.4,286047002.8,E
1627552635.4,286047000.3,N
1627552655.2,286046999.1,P
1627552675.0,286046997.1,P
1627552675.9,286046997.1,N
1627552695.8,286046996.6,N
1627552715.6,286046998.9,N
1627552735.4,286046998.1,N
1627552755.3,286047000.5,N
1627552775.1,286046999.8,N
1627552795.9,286046999.7,N
